Weather History for Thedford, NE

Change the Weather History Date:

Thursday, November 28, 2013

  Actual Average (KLBF) Record (KLBF)
Temperature  
Mean Temperature 26 °F 30 °F  
Max Temperature 30 °F 44 °F 68 °F (1941)
Min Temperature 22 °F 16 °F -13 °F (1976)
Degree Days  
Heating Degree Days 39 35  
Month to date heating degree days 811  
Since 1 July heating degree days 1480  
Cooling Degree Days 0 0  
Month to date cooling degree days 0  
Year to date cooling degree days 768  
Moisture  
Dew Point 21 °F    
Average Humidity 83    
Maximum Humidity 89    
Minimum Humidity 70    
Precipitation  
Precipitation 0.00 in 0.02 in 0.42 in (2004)
Month to date precipitation 0.61  
Year to date precipitation 19.79  
Snow  
Snow 0.00 in 0.10 in 9.90 in (2004)
Month to date snowfall 3.6  
Since 1 July snowfall 5.9  
Since 1 September snowfall 5.9  
Snow Depth -    
Sea Level Pressure  
Sea Level Pressure 30.27 in    
Wind  
Wind Speed 5 mph (NE)    
Max Wind Speed 12 mph    
Max Gust Speed 16 mph    
Visibility 10 miles    
Events      
T = Trace of Precipitation, MM = Missing Value Source: NWS Daily Summary

Daily Weather History Graph

Daily Weather History Graph

Search for Another Location

Airport:

Trip Planner

Search our weather history database for the weather conditions in past years. The results will help you decide how hot, cold, wet, or windy it might be!

Date:

Astronomy

Nov. 28, 2013 Rise Set
Actual Time 7:47 AM CST 5:12 PM CST
Civil Twilight 7:16 AM CST 5:43 PM CST
Nautical Twilight 6:42 AM CST 6:18 PM CST
Astronomical Twilight 6:08 AM CST 6:51 PM CST
Moon 2:47 AM CST (11/28) 2:27 PM CST (11/28)
Length of Visible Light 10h 27m
Length of Day
9h 25m
Waning Crescent, 22% of the Moon is Illuminated
Nov 28
Waning Crescent
Dec 2
New
Dec 9
First Quarter
Dec 17
Full
Dec 25
Last Quarter

Hourly Weather History & Observations

Time (CST) Temp. Windchill Dew Point Humidity Pressure Visibility Wind Dir Wind Speed Gust Speed Precip Events Conditions
12:15 AM 29.7 °F 24.7 °F 23.9 °F 79% 30.14 in 10.0 mi WNW 4.6 mph - N/A   Clear
12:35 AM 28.2 °F - 23.2 °F 81% 30.14 in 10.0 mi Calm Calm - N/A   Clear
12:55 AM 27.0 °F 21.6 °F 22.5 °F 83% 30.14 in 10.0 mi WNW 4.6 mph - N/A   Clear
1:15 AM 27.5 °F 22.2 °F 23.0 °F 83% 30.15 in 10.0 mi WNW 4.6 mph - N/A   Clear
1:35 AM 27.3 °F 23.4 °F 22.8 °F 83% 30.15 in 10.0 mi NW 3.5 mph - N/A   Clear
1:55 AM 25.9 °F 21.7 °F 22.5 °F 87% 30.15 in 10.0 mi NW 3.5 mph - N/A   Clear
2:15 AM 27.7 °F - 23.4 °F 84% 30.16 in 10.0 mi Calm Calm - N/A   Clear
2:35 AM 28.4 °F - 23.4 °F 81% 30.17 in 10.0 mi Calm Calm - N/A   Clear
2:55 AM 27.7 °F 22.4 °F 23.0 °F 83% 30.17 in 10.0 mi NW 4.6 mph - N/A   Clear
3:15 AM 27.1 °F 23.2 °F 22.6 °F 83% 30.18 in 10.0 mi NNW 3.5 mph - N/A   Clear
3:35 AM 26.4 °F 18.9 °F 22.1 °F 84% 30.19 in 10.0 mi NNW 6.9 mph - N/A   Clear
3:55 AM 26.8 °F 19.3 °F 22.6 °F 84% 30.19 in 10.0 mi NNW 6.9 mph - N/A   Clear
4:15 AM 26.2 °F 22.1 °F 21.7 °F 83% 30.20 in 10.0 mi NNW 3.5 mph - N/A   Clear
4:35 AM 24.6 °F 20.3 °F 20.8 °F 86% 30.20 in 10.0 mi WNW 3.5 mph - N/A   Clear
4:55 AM 25.3 °F 16.0 °F 21.6 °F 86% 30.20 in 10.0 mi NNW 9.2 mph - N/A   Clear
5:15 AM 25.7 °F 17.1 °F 21.4 °F 84% 30.21 in 10.0 mi NNW 8.1 mph - N/A   Clear
5:35 AM 25.5 °F 16.9 °F 21.2 °F 84% 30.22 in 10.0 mi NNW 8.1 mph - N/A   Clear
5:55 AM 24.8 °F 17.9 °F 21.0 °F 86% 30.23 in 10.0 mi North 5.8 mph - N/A   Scattered Clouds
6:15 AM 25.5 °F 19.9 °F 21.9 °F 86% 30.25 in 10.0 mi NNW 4.6 mph - N/A   Overcast
6:35 AM 26.1 °F 17.6 °F 22.5 °F 86% 30.26 in 10.0 mi North 8.1 mph - N/A   Overcast
6:55 AM 26.1 °F 19.4 °F 22.1 °F 85% 30.27 in 10.0 mi North 5.8 mph - N/A   Overcast
7:15 AM 25.7 °F 15.1 °F 21.9 °F 86% 30.27 in 10.0 mi North 11.5 mph - N/A   Overcast
7:35 AM 25.7 °F 17.1 °F 22.1 °F 86% 30.28 in 10.0 mi NNE 8.1 mph - N/A   Overcast
7:55 AM 25.7 °F 17.1 °F 22.1 °F 86% 30.28 in 10.0 mi NNW 8.1 mph - N/A   Overcast
8:15 AM 25.7 °F 18.0 °F 22.1 °F 86% 30.29 in 10.0 mi North 6.9 mph - N/A   Overcast
8:35 AM 25.5 °F 18.7 °F 22.1 °F 87% 30.30 in 10.0 mi North 5.8 mph - N/A   Overcast
8:55 AM 25.5 °F 19.9 °F 22.1 °F 87% 30.31 in 10.0 mi NNE 4.6 mph - N/A   Overcast
9:15 AM 25.3 °F 17.6 °F 21.9 °F 87% 30.32 in 10.0 mi North 6.9 mph - N/A   Overcast
9:35 AM 25.2 °F 19.5 °F 21.7 °F 87% 30.33 in 10.0 mi North 4.6 mph - N/A   Overcast
9:55 AM 24.8 °F 17.9 °F 21.6 °F 87% 30.33 in 7.0 mi North 5.8 mph - N/A   Overcast
10:15 AM 24.6 °F 17.7 °F 21.6 °F 88% 30.34 in 10.0 mi NNE 5.8 mph - N/A   Overcast
10:35 AM 24.4 °F 16.5 °F 21.4 °F 88% 30.34 in 10.0 mi North 6.9 mph - N/A   Overcast
10:55 AM 24.6 °F 16.7 °F 21.4 °F 87% 30.34 in 10.0 mi NNE 6.9 mph - N/A   Overcast
11:15 AM 24.8 °F - 21.2 °F 86% 30.34 in 10.0 mi Calm Calm - N/A   Overcast
11:35 AM 24.8 °F 20.5 °F 21.2 °F 86% 30.34 in 10.0 mi NNE 3.5 mph - N/A   Overcast
11:55 AM 25.3 °F 21.1 °F 21.4 °F 85% 30.33 in 10.0 mi NW 3.5 mph - N/A   Overcast
12:15 PM 25.7 °F 21.5 °F 21.7 °F 85% 30.33 in 10.0 mi ENE 3.5 mph - N/A   Overcast
12:35 PM 25.9 °F - 21.4 °F 83% 30.33 in 10.0 mi Calm Calm - N/A   Overcast
12:55 PM 26.4 °F - 21.6 °F 82% 30.33 in 10.0 mi Calm Calm - N/A   Overcast
1:15 PM 26.4 °F - 21.2 °F 81% 30.32 in 10.0 mi Calm Calm - N/A   Overcast
1:35 PM 26.6 °F - 21.0 °F 79% 30.31 in 10.0 mi Calm Calm - N/A   Overcast
1:55 PM 27.1 °F - 21.4 °F 79% 30.31 in 10.0 mi Calm Calm - N/A   Overcast
2:15 PM 27.3 °F - 21.6 °F 79% 30.31 in 10.0 mi Calm Calm - N/A   Overcast
2:35 PM 27.9 °F - 21.4 °F 77% 30.31 in 10.0 mi Calm Calm - N/A   Overcast
2:55 PM 27.5 °F - 21.2 °F 77% 30.31 in 10.0 mi Calm Calm - N/A   Overcast
3:15 PM 29.3 °F 25.6 °F 21.4 °F 72% 30.31 in 10.0 mi SE 3.5 mph - N/A   Scattered Clouds
3:35 PM 29.8 °F - 21.4 °F 71% 30.31 in 10.0 mi Calm Calm - N/A   Scattered Clouds
3:55 PM 30.0 °F 25.2 °F 21.2 °F 70% 30.30 in 10.0 mi South 4.6 mph - N/A   Clear
4:15 PM 29.3 °F 23.2 °F 21.2 °F 72% 30.31 in 10.0 mi SSE 5.8 mph - N/A   Clear
4:35 PM 29.3 °F 24.3 °F 21.2 °F 72% 30.30 in 10.0 mi SSE 4.6 mph - N/A   Clear
4:55 PM 28.2 °F 24.4 °F 21.0 °F 74% 30.30 in 10.0 mi SSE 3.5 mph - N/A   Clear
5:15 PM 26.2 °F 20.7 °F 20.3 °F 78% 30.30 in 10.0 mi SSE 4.6 mph - N/A   Clear
5:35 PM 25.5 °F 18.7 °F 20.3 °F 81% 30.31 in 10.0 mi SSE 5.8 mph - N/A   Clear
5:55 PM 24.1 °F 17.0 °F 19.6 °F 83% 30.31 in 10.0 mi SE 5.8 mph - N/A   Clear
6:15 PM 23.5 °F 16.4 °F 19.4 °F 84% 30.30 in 10.0 mi SE 5.8 mph - N/A   Clear
6:35 PM 23.9 °F 16.8 °F 20.5 °F 87% 30.30 in 10.0 mi SE 5.8 mph - N/A   Clear
6:55 PM 23.7 °F 16.6 °F 20.3 °F 87% 30.30 in 10.0 mi SE 5.8 mph - N/A   Clear
7:15 PM 23.0 °F 15.8 °F 19.8 °F 87% 30.30 in 10.0 mi SE 5.8 mph - N/A   Clear
7:35 PM 22.8 °F 14.5 °F 19.4 °F 87% 30.29 in 10.0 mi SE 6.9 mph - N/A   Clear
7:55 PM 22.1 °F 17.4 °F 19.2 °F 89% 30.29 in 7.0 mi ESE 3.5 mph - N/A   Clear
8:15 PM 23.0 °F 17.0 °F 19.9 °F 88% 30.29 in 10.0 mi SE 4.6 mph - N/A   Clear
8:35 PM 23.0 °F 13.9 °F 19.8 °F 87% 30.30 in 10.0 mi SSE 8.1 mph - N/A   Clear
8:55 PM 22.8 °F 13.6 °F 19.4 °F 87% 30.29 in 10.0 mi SSE 8.1 mph - N/A   Clear
9:15 PM 23.7 °F 14.7 °F 20.1 °F 86% 30.30 in 10.0 mi SSE 8.1 mph - N/A   Clear
9:35 PM 23.5 °F 17.6 °F 19.9 °F 86% 30.29 in 10.0 mi SSE 4.6 mph - N/A   Clear
9:55 PM 23.7 °F 16.6 °F 20.1 °F 86% 30.29 in 10.0 mi SSE 5.8 mph - N/A   Clear
10:15 PM 24.1 °F 15.2 °F 20.3 °F 85% 30.29 in 10.0 mi SSE 8.1 mph - N/A   Clear
10:35 PM 24.6 °F 15.1 °F 20.5 °F 84% 30.28 in 10.0 mi SSE 9.2 mph - N/A   Clear
10:55 PM 24.8 °F 14.0 °F 20.7 °F 84% 30.28 in 10.0 mi South 11.5 mph 16.1 mph N/A   Clear
11:15 PM 24.6 °F 15.8 °F 20.3 °F 84% 30.28 in 10.0 mi South 8.1 mph - N/A   Clear
11:35 PM 24.8 °F 16.1 °F 20.8 °F 85% 30.28 in 10.0 mi South 8.1 mph - N/A   Clear
11:55 PM 25.3 °F 15.3 °F 20.8 °F 83% 30.28 in 10.0 mi South 10.4 mph - N/A   Clear